Regional Weather Roundup
Issued by NWS

Home | Current Version | Previous Version | Text Only | Print | Product List | Glossary Off
Versions: 1 2 3 4 5 6 7 8 9 10 11 12 13 14 15 16 17 18 19 20 21 22 23 24 25 26 27 28 29 30 31 32 33 34 35 36 37 38 39 40 41 42 43 44 45 46 47 48 49 50

000
ASUS45 KBOU 031607
RWRCO

WEATHER ROUNDUP FOR COLORADO
NATIONAL WEATHER SERVICE DENVER/BOULDER CO
1000 AM MDT THU SEP 03 2015

NOTE: "FAIR" INDICATES FEW OR NO CLOUDS BELOW 12000 FEET WITH NO
SIGNIFICANT WEATHER AND/OR OBSTRUCTIONS TO VISIBILITY.

COZ001>005-013-030-031-031700-
...NORTHWEST COLORADO...

CITY           SKY/WX    TMP DP  RH WIND       PRES   REMARKS
CRAIG          PTSUNNY   72  49  44 NE6       30.14S
HAYDEN         NOT AVBL
MEEKER         PTSUNNY   66  52  60 CALM      30.15F
MOUNT WERNER   NOT AVBL
STEAMBOAT SPGS PTSUNNY   64  48  57 CALM      30.18F
WALDEN         PTSUNNY   59  43  55 CALM      30.26F
$$

COZ006>008-011-031700-
...WEST CENTRAL VALLEYS...

CITY           SKY/WX    TMP DP  RH WIND       PRES   REMARKS
GRAND JUNCTION CLOUDY    70  52  52 SE24      30.10R
MONTROSE       CLOUDY    63  57  81 SE7       30.22R
EAGLE          SUNNY     63  46  55 CALM      30.22F
RIFLE          PTSUNNY   62  52  69 W3        30.14S
DELTA          RAIN      68  54  62 E5        30.19S
NUCLA          CLOUDY    68  54  60 E8        30.23S
$$

COZ017>023-064>068-031700-
...SOUTHWEST COLORADO...

CITY           SKY/WX    TMP DP  RH WIND       PRES   REMARKS
DURANGO        PTSUNNY   68  49  50 VRB3      30.24F
CORTEZ         MOSUNNY   69  57  65 CALM      30.19F
PAGOSA SPRINGS CLOUDY    60  47  62 CALM      30.32S
TELLURIDE      CLOUDY    53  49  89 CALM      30.40S
WOLF CREEK PAS NOT AVBL
$$

COZ009-010-012-014-032>034-037-058>063-031700-
...CENTRAL COLORADO...

CITY           SKY/WX    TMP DP  RH WIND       PRES   REMARKS
ASPEN          CLOUDY    60  46  59 SE3       30.26S THUNDER
BUENA VISTA    CLOUDY    58  44  61 SE3       30.30S
COPPER MTN     CLOUDY    54  39  58 W5        30.54F
BERTHOUD PASS  PTSUNNY   45  32  61 N5        30.59S
COTTONWOOD PAS CLOUDY    55  41  58 SE7       30.41R
GUNNISON       CLOUDY    52  48  87 N3        30.36R
KREMMLING      MOSUNNY   57  43  58 SE3       30.26F
LEADVILLE      PTSUNNY   52  46  80 W5        30.39S
MONARCH PASS   CLOUDY    45  37  76 W9        30.65R
SALIDA         CLOUDY    62  49  62 N8        30.34S
SUNLIGHT       PTSUNNY   52  46  82 CALM      30.48F THUNDER
WILKERSON PASS LGT RAIN  46  41  81 W3        30.53R
$$

COZ069>075-031700-
...SAN LUIS VALLEY/SANGRE DE CRISTO MOUNTAINS...

CITY           SKY/WX    TMP DP  RH WIND       PRES   REMARKS
ALAMOSA        PTSUNNY   62  50  64 VRB3      30.27S
LA VETA PASS   PTSUNNY   52  43  71 SW7       30.41S
SAGUACHE       PTSUNNY   61  45  55 NW6       30.31S
$$

COZ035-036-038>040-031700-
...NORTHERN COLORADO FRONT RANGE...

CITY           SKY/WX    TMP DP  RH WIND       PRES   REMARKS
DENVER INTL AP CLOUDY    78  43  28 N6        30.04F
DMNS CITY PARK   N/A     72  49  43 E7        30.05R
AURORA         CLOUDY    76  42  29 S3        30.08R
FRONT RANGE AP CLOUDY    77  43  29 N8        30.05F
ERIE MUNI ARPT CLOUDY    73  53  48 CALM      30.03S
BOULDER MUN AP CLOUDY    73  43  33 CALM      30.04S
CENTENNIAL     CLOUDY    74  45  35 W9        30.09R
BROOMFIELD     PTSUNNY   75  41  29 W3        30.07S
FORT COLLINS   CLOUDY    73  48  40 S7        30.03S
LONGMONT       CLOUDY    74  55  52 CALM      30.04S
$$

COZ041-046-047-076>085-087-088-031700-
...PIKES PEAK/PALMER DIVIDE AND SOUTHERN FOOTHILLS...

CITY           SKY/WX    TMP DP  RH WIND       PRES   REMARKS
COLO. SPRINGS  PTSUNNY   77  44  30 NW6       30.10S
A. F. ACADEMY  CLOUDY    73  45  36 N9        30.13R
ELLICOTT       PTSUNNY  N/A N/A N/A N17       30.07S
FALCON         CLOUDY    71  41  33 MISG      30.16S
FORT CARSON    PTSUNNY   78  46  32 N10       30.07R
LIMON          CLOUDY    74  48  39 NW6       30.03F
MONUMENT HILL  CLOUDY    68  41  37 CALM      30.18R
TRINIDAD       PTSUNNY   77  45  32 W9        30.08S
$$

COZ042>045-048>051-090-091-031700-
...NORTHEAST COLORADO...

CITY           SKY/WX    TMP DP  RH WIND       PRES   REMARKS
GREELEY ARPT   CLOUDY    72  50  46 SW8       30.03R
AKRON          PTSUNNY   79  45  29 N10       29.97F
BURLINGTON     PTSUNNY   84  44  24 NE3       29.94S
WRAY             N/A     90  45  21 N3        29.89S
STERLING       PTSUNNY   72  55  56 SW8       29.94S
HOLYOKE        MOSUNNY   90  50  25 N3        29.90F
FORT MORGAN    PTSUNNY   74  48  39 NE6       29.98F
$$

COZ086-089-092>099-031700-
...SOUTHEAST COLORADO...

CITY           SKY/WX    TMP DP  RH WIND       PRES   REMARKS
PUEBLO         PTSUNNY   83  47  28 W8        29.99S
LA JUNTA       PTSUNNY   81  47  30 W12       29.95S
LAMAR          PTSUNNY   83  52  34 W7        29.90F
SPRINGFIELD      N/A     89  45  21 SW7       29.96S
$$



USA.gov is the U.S. government's official web portal to all federal, state and local government web resources and services.